Theta_e
313 311 308 311 313 311 310 308 307 311 313 312 312 313 317 320 321 323 326 327 326 324 329 335 335 338 337 335 334 338 338 337 336 335 334 335 334 334 328 329 330 328 329 330
311 308 313 313 313 310 309 307 308 310 313 313 312 312 316 319 317 318 322 321 322 322 329 332 334 335 334 334 335 336 336 337 336 336 337 337 334 330 328 331 329 330 329 328
308 311 312 312 312 310 310 307 307 307 310 313 311 309 313 317 320 320 322 323 323 323 330 331 331 334 334 334 335 335 337 338 338 338 337 335 334 333 330 328 330 328 327 327
310 312 310 311 309 311 306 312 309 307 306 302 310 300 308 313 315 316 321 325 323 324 331 330 329 330 333 333 334 335 336 335 334 337 335 334 332 326 326 329 329 329 325 324
308 309 308 307 309 311 307 311 309 308 306 304 305 303 308 311 311 315 323 324 324 326 331 329 328 329 330 334 334 334 334 335 335 334 333 331 327 328 330 329 325 325 323 321
310 312 311 311 312 311 312 309 308 305 304 298 304 303 303 308 312 315 323 323 324 328 330 328 329 329 331 333 332 332 331 330 331 330 329 330 328 326 327 325 322 317 317 317
307 307 309 311 308 310 309 306 299 297 297 297 303 301 305 311 313 316 322 323 325 328 329 328 326 328 330 331 330 329 330 331 328 329 327 328 328 327 323 321 317 315 314 314
303 301 309 312 309 308 307 306 300 293 295 298 303 300 307 314 317 319 324 325 326 326 328 329 329 330 330 329 329 328 329 328 326 327 325 326 326 323 321 318 316 315 314 314
304 303 312 313 313 312 308 305 306 302 303 299 302 305 311 314 315 318 321 323 323 325 327 327 329 330 330 330 330 330 328 327 327 325 326 325 323 320 317 316 318 315 317 315
309 303 310 313 314 313 311 312 304 305 295 293 299 300 304 310 313 317 318 320 323 326 326 327 329 329 330 330 330 330 327 324 323 323 324 322 319 318 318 318 317 318 317 316
313 309 308 311 310 309 309 307 306 306 303 297 295 300 311 312 314 316 319 322 324 325 325 326 327 328 329 329 327 325 322 320 321 322 321 318 317 316 316 316 316 316 317 316
314 312 306 308 311 313 311 309 309 302 300 302 301 301 310 315 315 318 319 321 323 324 324 324 324 323 326 325 323 322 322 321 322 320 318 316 316 316 316 316 316 317 315 315
314 309 302 303 308 311 308 309 309 306 306 302 299 302 313 314 315 318 318 320 322 323 323 322 321 321 321 323 322 320 320 320 320 317 316 316 316 316 316 316 316 317 316 314
316 309 306 300 304 307 305 306 308 306 303 303 303 305 310 313 314 315 318 321 322 323 322 322 321 321 321 322 321 320 319 318 317 315 315 315 316 316 316 316 316 316 316 314
314 307 306 308 308 307 306 307 308 306 307 302 305 306 311 312 315 316 318 320 320 321 321 321 321 322 321 320 320 320 320 317 316 314 314 315 316 317 316 316 317 316 315 314
313 307 308 305 307 307 304 307 308 308 307 308 308 307 313 311 313 315 317 319 320 321 321 321 322 321 321 320 318 317 318 317 315 314 314 316 316 315 316 318 317 316 316 315
310 309 305 301 305 305 301 307 308 305 305 305 302 305 308 306 307 309 312 314 317 318 320 319 319 321 322 321 317 315 317 317 316 315 315 315 315 315 316 317 316 315 316 316
309 308 307 302 304 293 305 313 312 304 304 306 307 307 306 304 306 307 310 312 314 314 314 317 319 319 318 316 316 318 317 316 315 315 315 315 315 315 316 317 316 316 317 316
314 310 305 301 300 302 303 309 309 305 303 307 306 307 308 309 306 309 310 310 311 312 315 316 316 317 319 317 319 318 317 315 314 314 314 315 315 315 316 316 317 318 317 316
311 313 308 304 296 293 304 313 316 314 300 309 309 309 310 309 304 306 311 312 313 313 314 315 316 318 318 319 317 316 315 314 310 309 310 311 312 315 311 316 318 319 317 315
306 306 303 302 301 304 312 316 317 300 302 313 314 312 311 308 310 314 315 314 315 316 316 316 316 316 315 315 315 315 315 314 315 314 313 314 317 312 316 312 312 317 317 316
305 303 303 303 300 297 314 315 306 312 314 312 312 312 311 312 312 312 313 313 314 314 313 314 314 315 316 315 315 314 312 314 317 318 317 316 316 314 315 315 315 313 316 315
304 309 308 306 308 313 317 316 320 315 310 310 311 312 313 312 311 312 311 311 313 313 314 315 315 309 301 300 301 301 300 302 306 313 315 316 316 315 315 315 313 311 314 311
310 312 310 308 312 313 310 312 312 312 312 314 314 314 314 312 313 313 310 308 305 305 304 304 302 299 297 295 295 295 296 297 299 303 304 306 309 310 315 315 314 312 309 311
314 313 311 309 311 309 311 312 313 314 315 314 314 314 314 313 308 305 303 303 303 302 300 298 296 295 295 295 295 294 293 294 294 294 296 300 301 303 305 308 309 312 314 309
314 313 309 310 313 312 310 311 314 314 314 315 313 310 310 308 304 303 299 299 301 301 299 297 296 296 295 294 293 292 293 294 294 294 295 296 297 297 299 299 301 300 299 297
Wind_Speed
2 5 6 9 5 3 3 6 8 7 3 4 4 4 7 5 6 7 7 5 5 3 1 2 4 2 1 1 4 5 6 6 5 5 4 3 3 3 3 2 1 3 4 5
2 7 9 4 6 5 7 8 11 6 3 5 5 9 7 7 5 5 6 4 3 4 3 2 1 2 2 4 7 7 6 5 4 3 3 3 3 2 2 1 3 4 5 5
6 7 2 6 9 10 11 10 11 10 1 3 3 6 6 6 6 6 6 4 5 5 5 4 3 4 4 6 7 8 6 5 4 5 4 4 4 2 2 3 1 3 4 5
7 3 8 8 10 11 13 17 13 10 8 10 2 9 5 7 9 7 7 5 8 7 6 6 4 3 4 5 6 7 6 6 5 5 3 3 3 2 2 2 2 0 4 5
13 7 6 8 17 6 15 8 8 7 7 4 6 6 2 1 10 12 8 5 7 9 8 7 6 3 2 2 4 5 6 6 6 5 4 4 4 3 2 1 1 3 4 4
17 2 5 15 12 9 8 8 5 2 3 7 6 6 7 6 11 9 6 5 8 10 9 7 6 3 3 4 4 5 6 6 5 4 5 5 4 2 1 2 3 4 4 4
3 6 4 5 8 3 3 3 6 8 7 10 2 5 9 7 6 7 10 8 8 8 8 7 5 5 4 4 4 5 4 4 3 4 4 4 3 4 4 3 4 5 5 5
4 5 2 3 3 2 2 3 6 14 12 14 2 6 3 3 2 2 7 8 8 8 6 6 5 5 6 6 5 4 4 5 5 4 2 3 5 3 2 2 3 3 4 5
3 5 1 3 1 3 4 4 3 3 1 5 3 4 9 2 4 3 8 9 9 7 6 6 5 6 6 6 5 5 5 5 5 3 2 3 4 3 2 2 3 4 5 5
1 6 1 1 2 6 2 6 4 3 7 10 3 4 8 3 8 9 10 10 10 8 8 7 7 7 5 5 5 5 5 6 5 4 4 4 3 1 0 3 5 7 6 6
3 4 5 2 6 8 4 3 2 2 3 6 8 4 2 9 8 11 11 12 12 12 11 9 8 7 7 7 7 6 7 6 6 6 5 4 3 3 4 5 6 7 6 6
3 3 6 11 2 3 2 4 5 6 5 3 4 6 1 8 6 9 12 12 11 11 11 10 8 8 8 9 8 8 7 6 6 6 5 4 4 5 6 7 8 7 7 6
1 1 6 7 4 3 2 1 2 2 2 9 8 7 2 2 1 6 11 12 11 11 11 10 9 9 9 8 7 7 6 7 6 6 6 6 6 6 8 8 8 6 6 7
3 2 8 12 14 4 9 6 5 6 6 11 11 18 6 6 7 6 9 11 13 12 12 11 11 10 9 8 8 7 7 7 6 6 6 7 7 8 8 8 8 7 6 8
1 5 3 10 10 8 10 12 9 10 13 9 13 11 13 9 8 12 10 9 11 12 13 13 11 8 7 8 8 9 9 8 7 7 8 9 8 8 9 9 8 7 7 8
3 2 4 9 4 4 7 6 6 6 11 9 11 11 11 11 5 6 11 10 11 13 11 10 9 7 9 9 9 7 8 9 7 9 10 9 9 9 10 9 9 8 9 9
1 3 3 3 8 9 3 9 7 10 11 8 6 9 9 9 7 7 6 4 8 7 7 7 9 9 9 9 6 8 9 6 8 10 11 11 10 10 10 9 9 11 10 8
0 1 1 4 9 1 4 4 6 10 13 11 11 13 13 9 8 3 4 3 7 7 6 7 6 6 6 5 7 8 8 9 9 11 11 12 11 12 11 10 11 12 10 9
1 2 1 3 3 3 3 5 4 1 6 7 10 8 12 11 10 2 4 2 1 2 3 3 2 4 4 7 9 9 10 9 10 12 10 11 12 13 12 12 12 11 9 10
4 3 1 1 1 3 4 6 1 2 5 4 7 4 8 11 2 6 3 2 4 2 1 3 5 6 7 7 7 8 10 9 7 6 9 9 9 11 10 12 13 11 10 11
1 1 1 1 2 2 2 5 1 0 0 5 7 4 5 8 4 4 5 3 5 6 7 6 5 6 7 7 6 7 8 10 13 12 10 12 10 9 12 11 7 11 10 10
2 2 2 2 2 2 2 4 1 4 3 3 2 5 6 7 7 9 9 9 10 8 8 6 6 11 13 15 11 12 13 15 14 13 12 11 12 10 7 11 12 9 10 10
3 3 1 4 1 3 4 6 3 2 1 3 4 4 5 8 9 12 12 15 16 16 14 14 13 15 15 14 14 13 14 14 14 14 14 13 12 13 11 10 11 9 8 8
4 4 3 3 2 3 3 3 2 5 9 9 9 9 11 11 11 14 13 13 13 14 14 14 14 14 13 13 14 14 15 15 15 14 14 13 14 14 12 9 7 7 6 8
1 8 4 3 2 6 5 5 6 10 12 13 13 13 12 12 13 12 12 12 12 12 12 12 12 11 12 12 13 14 15 15 14 13 12 13 12 13 13 11 10 10 9 8
6 5 5 3 7 2 4 4 6 9 11 10 12 13 13 13 13 13 12 10 11 11 10 11 11 11 11 12 13 15 16 15 14 13 11 10 11 8 10 9 11 7 9 11
Wind_Direction
99 227 233 249 224 320 265 267 272 276 274 259 258 208 205 215 251 239 225 230 226 216 89 19 22 331 276 59 109 112 124 135 161 162 156 152 122 107 76 101 355 345 327 323
167 238 243 222 224 248 263 289 270 284 208 237 227 255 192 207 231 222 207 209 219 172 152 99 98 78 77 97 104 118 106 137 154 151 131 96 109 104 148 155 96 35 15 18
232 252 65 224 240 256 266 253 278 291 189 244 256 259 204 203 220 206 232 226 198 185 147 102 38 58 89 111 113 113 101 104 117 115 121 129 133 126 141 113 39 36 20 26
258 304 235 235 259 254 273 276 268 275 291 291 290 294 260 217 203 209 203 211 180 157 122 103 71 35 63 99 119 121 102 93 89 95 121 120 88 65 90 67 34 25 34 32
252 242 202 229 241 238 266 300 280 288 271 272 225 253 270 282 238 210 174 148 140 141 133 125 110 88 59 141 114 111 109 107 114 115 120 121 104 104 75 46 23 61 44 15
265 279 246 254 277 240 269 267 268 136 234 253 287 257 285 231 238 206 147 137 136 132 120 123 117 134 147 132 123 121 122 109 104 117 116 128 109 71 35 70 21 22 18 8
286 250 283 255 271 156 173 237 282 274 251 283 38 241 278 310 286 248 164 154 144 138 137 143 154 178 166 152 140 128 102 95 105 134 155 147 109 86 77 38 8 6 358 341
278 290 207 161 256 333 174 235 289 293 291 297 131 249 294 7 23 6 152 148 152 147 150 143 164 176 163 158 164 154 148 126 134 168 127 74 109 106 82 14 6 344 315 326
232 255 304 31 153 293 140 243 45 277 197 265 284 272 262 250 203 170 165 163 162 158 163 164 189 189 179 179 184 190 168 167 194 175 138 152 149 134 36 357 319 304 308 323
247 273 216 127 184 68 296 123 237 238 275 284 233 273 280 269 226 200 178 184 173 164 175 189 195 197 194 199 184 193 199 217 214 200 173 174 174 234 272 296 302 305 311 312
205 237 257 255 215 255 169 205 132 292 262 282 294 262 225 295 299 212 191 183 179 178 183 187 189 201 202 195 197 193 207 213 212 202 180 196 241 260 276 290 296 299 298 306
43 276 252 264 50 10 294 280 227 245 213 231 295 268 285 289 294 206 183 180 181 183 188 188 189 198 206 208 203 213 216 221 215 199 212 232 251 264 268 278 285 293 282 299
89 231 289 263 219 121 279 245 223 94 164 238 264 264 43 359 101 204 179 176 179 194 199 198 198 206 214 220 222 232 223 220 212 208 228 247 256 257 268 278 287 273 280 292
212 229 261 283 297 282 274 250 217 221 266 280 256 284 277 259 231 197 193 193 192 195 204 211 211 215 217 225 231 234 232 228 220 230 244 262 262 265 274 282 280 267 282 287
351 270 270 286 288 269 267 274 290 248 271 265 294 273 309 307 302 217 199 204 203 206 212 218 224 228 231 235 242 242 240 230 227 240 249 259 267 271 280 279 266 265 276 278
29 292 313 295 334 338 281 317 301 320 352 263 287 293 354 330 329 190 192 181 205 218 226 233 237 236 238 241 243 235 235 233 228 246 254 260 265 275 277 280 266 263 274 279
346 312 326 284 323 303 173 358 19 61 27 337 25 10 348 26 17 84 96 169 230 245 244 232 228 234 244 245 234 227 233 241 243 253 260 262 265 268 272 277 267 262 270 283
113 130 242 303 319 70 5 341 76 72 37 25 44 37 28 19 292 140 121 187 246 239 220 217 220 230 248 235 223 237 244 245 252 258 260 262 262 262 266 267 261 262 264 270
48 147 135 327 340 310 93 27 359 334 66 80 116 81 55 274 261 89 19 315 15 215 235 243 205 211 222 225 235 239 248 250 252 259 282 291 294 283 275 268 265 263 264 266
100 66 281 186 348 23 19 349 82 197 76 236 173 169 198 233 106 39 39 114 105 101 3 253 230 228 242 352 341 308 304 298 294 264 263 264 250 257 254 265 273 274 264 265
146 65 288 184 260 215 304 336 240 81 239 300 281 312 31 55 42 0 349 5 6 3 1 344 328 359 12 331 318 314 317 322 319 297 287 279 290 257 270 266 251 263 260 266
242 226 200 157 226 186 19 272 323 14 316 313 28 43 48 41 31 16 20 11 8 9 13 19 20 47 36 21 15 28 19 351 342 334 324 319 307 294 306 287 279 260 265 261
225 245 306 230 347 344 300 274 306 256 299 31 43 55 80 50 38 33 36 42 42 41 40 44 55 59 43 35 32 30 10 359 354 355 356 355 347 351 340 310 298 288 270 258
205 176 232 240 157 288 41 78 71 94 100 80 71 70 73 73 67 64 56 52 53 49 48 50 52 50 44 32 31 25 11 4 2 1 358 355 348 349 350 340 330 315 312 301
104 161 191 238 192 139 106 94 107 108 101 85 69 68 80 85 76 76 67 60 59 59 57 52 53 48 40 30 27 18 11 5 2 355 354 356 351 352 343 347 347 339 344 342
186 173 194 212 165 200 91 74 133 110 91 89 90 78 71 80 83 78 70 63 58 58 51 49 45 41 33 25 19 13 8 3 -0 351 353 353 338 349 336 338 328 344 332 329